DW1114 Weather Reports


Display with metric or nautical units.
time (UTC)temp
F
wind
direction
speed
MPH
gust
MPH
rain 1hr
in
rain 24hr
in
rain mn
in
humidity
%
barometer
mb
20260508022904 51 183 0.0 5.0 0.00 0.00 0.00 1013.2
20260508022403 51 202 0.0 4.0 0.00 0.00 0.00 1013.2
20260508021903 51 180 0.0 3.0 0.00 0.00 0.00 1013.6
20260508021403 51 195 0.0 3.0 0.00 0.00 0.00 1013.6
20260508020903 51 177 0.0 3.0 0.00 0.00 0.00 1013.2
20260508020402 52 197 0.0 4.0 0.00 0.00 0.00 1013.9
20260508015903 52 189 0.0 6.0 0.00 0.00 0.00 1012.9
20260508015402 52 180 0.0 6.0 0.00 0.00 0.00 1012.9
20260508014903 52 202 0.0 5.0 0.00 0.00 0.00 1013.2
20260508014403 52 202 0.0 5.0 0.00 0.00 0.00 1013.2
20260508013903 52 186 0.0 6.0 0.00 0.00 0.00 1013.2
20260508013403 52 180 0.0 6.0 0.00 0.00 0.00 1013.2
20260508012903 52 202 0.0 5.0 0.00 0.00 0.00 1012.9
20260508012403 51 202 0.0 5.0 0.00 0.00 0.00 1012.9
20260508011903 51 224 0.0 6.0 0.00 0.00 0.00 1012.9
20260508011403 51 202 0.0 6.0 0.00 0.00 0.00 1012.9
20260508010903 51 173 0.0 1.0 0.00 0.00 0.00 1012.9
20260508010402 52 225 0.0 6.0 0.00 0.00 0.00 1013.2
20260508005903 52 225 0.0 6.0 0.00 0.00 0.00 1013.6
20260508005403 52 224 0.0 5.0 0.00 0.00 0.00 1013.6
20260508004903 52 225 0.0 5.0 0.00 0.00 0.00 1013.2
20260508004403 53 269 0.0 6.0 0.00 0.00 0.00 1013.2
20260508003903 53 249 0.0 6.0 0.00 0.00 0.00 1013.2
20260508003403 53 170 0.0 4.0 0.00 0.00 0.00 1013.6
20260508002903 54 259 1.0 3.0 0.00 0.00 0.00 1013.2
20260508002403 54 289 0.0 5.0 0.00 0.00 0.00 1013.2
20260508001903 54 284 0.0 5.0 0.00 0.00 0.00 1013.6
20260508001403 55 237 1.0 6.0 0.00 0.00 0.00 1012.9
20260508000903 55 261 2.0 6.0 0.00 0.00 0.00 1013.2
20260508000404 56 251 1.0 4.0 0.00 0.00 0.00 1013.2
20260507235903 56 249 0.0 6.0 0.00 0.00 0.00 1012.9
20260507235403 57 263 2.0 6.0 0.00 0.00 0.00 1012.9
20260507234903 58 238 0.0 6.0 0.00 0.00 0.00 1012.6
20260507234403 58 275 2.0 6.0 0.00 0.00 0.00 1012.6
20260507233903 58 273 2.0 6.0 0.00 0.00 0.00 1012.9
20260507233403 59 279 2.0 10.0 0.00 0.00 0.00 1013.6
20260507232903 58 270 4.0 10.0 0.00 0.00 0.00 1012.9
20260507232403 58 234 1.0 8.0 0.00 0.00 0.00 1012.9
20260507231902 58 264 2.0 8.0 0.00 0.00 0.00 1013.6
20260507231403 59 288 2.0 9.0 0.00 0.00 0.00 1013.6
20260507230903 59 319 4.0 9.0 0.00 0.00 0.00 1013.2
20260507230403 59 287 4.0 9.0 0.00 0.00 0.00 1013.2
20260507225903 60 292 4.0 9.0 0.00 0.00 0.00 1012.9
20260507225402 61 289 4.0 9.0 0.00 0.00 0.00 1013.2
20260507224903 61 328 3.0 9.0 0.00 0.00 0.00 1013.2
20260507224403 61 265 4.0 8.0 0.00 0.00 0.00 1012.6
20260507223903 61 293 2.0 7.0 0.00 0.00 0.00 1012.6
20260507223424 61 315 2.0 9.0 0.00 0.00 0.00 1012.9
20260507222924 61 274 4.0 10.0 0.00 0.00 0.00 1013.2
20260507222403 60 303 4.0 10.0 0.00 0.00 0.00 1012.9
20260507221903 60 289 6.0 10.0 0.00 0.00 0.00 1013.9
20260507221403 61 312 2.0 15.0 0.00 0.00 0.00 1012.6
20260507220903 60 291 7.0 15.0 0.00 0.00 0.00 1013.2
20260507220402 61 312 3.0 8.0 0.00 0.00 0.00 1013.2
20260507215903 60 28 3.0 14.0 0.00 0.00 0.00 1013.6
20260507215403 60 299 7.0 14.0 0.00 0.00 0.00 1013.2
20260507214903 60 277 5.0 15.0 0.00 0.00 0.00 1012.9
20260507214403 60 277 6.0 15.0 0.00 0.00 0.00 1013.6
20260507213925 59 293 6.0 12.0 0.00 0.00 0.00 1012.9
20260507213425 60 295 3.0 8.0 0.00 0.00 0.00 1012.9
20260507212905 59 348 3.0 9.0 0.00 0.00 0.00 1013.2
20260507212403 58 301 4.0 10.0 0.00 0.00 0.00 1013.2
20260507211903 58 303 5.0 17.0 0.00 0.00 0.00 1012.9
20260507211403 57 287 6.0 17.0 0.00 0.00 0.00 1012.9
20260507210903 58 291 8.0 15.0 0.00 0.00 0.00 1013.6
20260507210403 60 285 4.0 14.0 0.00 0.00 0.00 1012.9
20260507205403 58 271 4.0 14.0 0.00 0.00 0.00 1012.9
20260507204903 60 305 7.0 13.0 0.00 0.00 0.00 1013.2
20260507204404 59 309 4.0 11.0 0.00 0.00 0.00 1012.6
20260507203903 59 315 4.0 10.0 0.00 0.00 0.00 1013.6
20260507203424 59 328 4.0 10.0 0.00 0.00 0.00 1012.9
20260507202902 58 341 3.0 10.0 0.00 0.00 0.00 1013.2
20260507202403 58 304 3.0 10.0 0.00 0.00 0.00 1013.6
20260507201903 57 302 4.0 14.0 0.00 0.00 0.00 1013.6
20260507201403 57 282 7.0 14.0 0.00 0.00 0.00 1013.6
20260507200903 57 317 4.0 15.0 0.00 0.00 0.00 1012.9
20260507200403 57 303 7.0 15.0 0.00 0.00 0.00 1013.2
20260507195903 58 330 6.0 15.0 0.00 0.00 0.00 1013.2
20260507195403 58 306 6.0 15.0 0.00 0.00 0.00 1012.9
20260507194903 58 305 6.0 14.0 0.00 0.00 0.00 1013.2
20260507194403 57 26 3.0 13.0 0.00 0.00 0.00 1013.2
20260507193902 57 336 5.0 13.0 0.00 0.00 0.00 1013.2
20260507193403 57 329 4.0 18.0 0.00 0.00 0.00 1013.2
20260507192903 56 260 6.0 18.0 0.00 0.00 0.00 1013.2
20260507192403 57 280 8.0 17.0 0.00 0.00 0.00 1013.2
20260507191903 57 308 5.0 14.0 0.00 0.00 0.00 1013.6
20260507191403 57 304 6.0 15.0 0.00 0.00 0.00 1013.2
20260507190903 57 322 5.0 15.0 0.00 0.00 0.00 1013.9
20260507190424 56 311 6.0 13.0 0.00 0.00 0.00 1013.2
20260507185903 56 317 6.0 17.0 0.00 0.00 0.00 1013.9
20260507185404 56 305 6.0 17.0 0.00 0.00 0.00 1013.6
20260507184903 56 316 3.0 15.0 0.00 0.00 0.00 1013.2
20260507184403 56 328 5.0 19.0 0.00 0.00 0.00 1013.9
20260507183903 56 301 5.0 19.0 0.00 0.00 0.00 1013.9
20260507183403 56 343 5.0 12.0 0.00 0.00 0.00 1013.9
20260507182903 56 312 6.0 17.0 0.00 0.00 0.00 1014.6
20260507182403 55 302 7.0 17.0 0.00 0.00 0.00 1013.9
20260507181903 55 15 4.0 14.0 0.00 0.00 0.00 1013.9
20260507181403 54 300 7.0 18.0 0.00 0.00 0.00 1013.6
20260507180924 55 287 10.0 18.0 0.00 0.00 0.00 1013.9
20260507175403 55 292 8.0 17.0 0.00 0.00 0.00 1013.9
20260507173903 54 314 6.0 16.0 0.00 0.00 0.00 1013.9
20260507173403 55 296 7.0 16.0 0.00 0.00 0.00 1013.9
20260507172903 55 308 4.0 14.0 0.00 0.00 0.00 1014.3
20260507171403 53 287 8.0 18.0 0.00 0.00 0.00 1013.9
20260507170924 53 299 5.0 18.0 0.00 0.00 0.00 1014.3
20260507170403 53 298 6.0 17.0 0.00 0.00 0.00 1014.6
20260507165903 53 305 7.0 17.0 0.00 0.00 0.00 1014.6
20260507165424 53 286 7.0 14.0 0.00 0.00 0.00 1014.3
20260507164903 52 288 5.0 12.0 0.00 0.00 0.00 1014.3
20260507164445 52 295 4.0 19.0 0.00 0.00 0.00 1014.6
20260507163902 52 277 7.0 21.0 0.00 0.00 0.00 1014.6
20260507163403 52 273 5.0 21.0 0.00 0.00 0.00 1014.6
20260507162924 52 304 5.0 15.0 0.00 0.00 0.00 1014.9
20260507162403 52 291 5.0 18.0 0.00 0.00 0.00 1014.6
20260507161903 52 286 8.0 18.0 0.00 0.00 0.00 1014.3
20260507161402 51 346 3.0 12.0 0.00 0.00 0.00 1014.3
20260507160903 51 266 7.0 15.0 0.00 0.00 0.00 1014.3
20260507160445 51 284 7.0 15.0 0.00 0.00 0.00 1014.6
20260507155903 51 279 8.0 14.0 0.00 0.00 0.00 1014.9
20260507155403 51 292 6.0 14.0 0.00 0.00 0.00 1014.9
20260507154903 50 281 4.0 9.0 0.00 0.00 0.00 1014.3
20260507154403 51 321 3.0 17.0 0.00 0.00 0.00 1014.6
20260507153903 50 290 7.0 17.0 0.00 0.00 0.00 1014.6
20260507153403 50 284 5.0 14.0 0.00 0.00 0.00 1014.6
20260507152903 50 260 6.0 11.0 0.00 0.00 0.00 1014.3
20260507152403 50 303 4.0 15.0 0.00 0.00 0.00 1014.9
20260507151903 49 293 5.0 15.0 0.00 0.00 0.00 1014.6
20260507151424 49 288 5.0 18.0 0.00 0.00 0.00 1014.6
20260507150903 49 272 9.0 18.0 0.00 0.00 0.00 1014.3
20260507150403 49 260 5.0 15.0 0.00 0.00 0.00 1013.9
20260507145904 49 293 6.0 12.0 0.00 0.00 0.00 1013.9
20260507145403 49 294 6.0 12.0 0.00 0.00 0.00 1013.9
20260507144903 49 302 4.0 12.0 0.00 0.00 0.00 1014.9
20260507144403 49 329 2.0 12.0 0.00 0.00 0.00 1014.6
20260507143902 49 313 5.0 12.0 0.00 0.00 0.00 1014.3
20260507143403 49 323 4.0 12.0 0.00 0.00 0.00 1014.6
20260507142924 49 291 6.0 12.0 0.00 0.00 0.00 1014.9
20260507142403 49 305 5.0 11.0 0.00 0.00 0.00 1013.9
20260507141903 49 312 6.0 14.0 0.00 0.00 0.00 1013.9
20260507141403 50 319 6.0 14.0 0.00 0.00 0.00 1013.9
20260507140924 50 315 3.0 10.0 0.00 0.00 0.00 1013.9
20260507140403 49 282 4.0 10.0 0.00 0.00 0.00 1014.3
20260507135903 49 307 5.0 10.0 0.00 0.00 0.00 1014.6
20260507135403 48 268 1.0 10.0 0.00 0.00 0.00 1014.6
20260507134903 48 307 4.0 9.0 0.00 0.00 0.00 1013.9
20260507134403 48 320 3.0 8.0 0.00 0.00 0.00 1013.9
20260507133945 47 335 3.0 9.0 0.00 0.00 0.00 1013.9
20260507133402 47 327 5.0 9.0 0.00 0.00 0.00 1014.6
20260507132903 47 332 4.0 13.0 0.00 0.00 0.00 1013.9
20260507132402 47 286 8.0 13.0 0.00 0.00 0.00 1014.3
20260507131903 47 290 6.0 12.0 0.00 0.00 0.00 1013.9
20260507131402 47 331 4.0 12.0 0.00 0.00 0.00 1014.6
20260507130903 46 287 6.0 11.0 0.00 0.00 0.00 1014.3
20260507130403 46 318 3.0 10.0 0.00 0.00 0.00 1014.3
20260507125903 46 288 4.0 12.0 0.00 0.00 0.00 1013.9
20260507125403 46 314 7.0 12.0 0.00 0.00 0.00 1013.9
20260507124903 46 338 4.0 8.0 0.00 0.00 0.00 1013.9
20260507124403 46 347 1.0 7.0 0.00 0.00 0.00 1013.9
20260507122903 45 288 5.0 8.0 0.00 0.00 0.00 1013.9
20260507122402 45 320 2.0 8.0 0.00 0.00 0.00 1013.9
20260507121903 45 321 3.0 7.0 0.00 0.00 0.00 1013.9
20260507121403 45 302 2.0 6.0 0.00 0.00 0.00 1014.3
20260507120903 44 293 3.0 7.0 0.00 0.00 0.00 1013.9
20260507120403 44 305 3.0 7.0 0.00 0.00 0.00 1013.9
20260507115903 44 290 2.0 7.0 0.00 0.00 0.00 1013.6
20260507115403 44 331 3.0 7.0 0.00 0.00 0.00 1013.6
20260507114903 44 316 2.0 5.0 0.00 0.00 0.00 1013.9
20260507114403 44 329 2.0 5.0 0.00 0.00 0.00 1014.3
20260507113902 44 306 1.0 5.0 0.00 0.00 0.00 1013.9
20260507113403 44 298 2.0 5.0 0.00 0.00 0.00 1014.3
20260507112903 44 303 2.0 5.0 0.00 0.00 0.00 1014.3
20260507112424 44 320 1.0 5.0 0.00 0.00 0.00 1014.3
20260507111905 43 336 2.0 5.0 0.00 0.00 0.00 1013.6
20260507111403 42 317 1.0 4.0 0.00 0.00 0.00 1014.6
20260507110903 42 305 0.0 3.0 0.00 0.00 0.00 1013.9
20260507110402 42 299 2.0 3.0 0.00 0.00 0.00 1013.9
20260507105924 41 340 0.0 5.0 0.00 0.00 0.00 1013.6
20260507105403 41 312 1.0 5.0 0.00 0.00 0.00 1014.3
20260507104903 41 313 1.0 5.0 0.00 0.00 0.00 1013.6
20260507104403 41 307 0.0 5.0 0.00 0.00 0.00 1013.9
20260507103903 41 331 0.0 5.0 0.00 0.00 0.00 1013.6
20260507103403 41 334 1.0 5.0 0.00 0.00 0.00 1013.9
20260507102947 42 309 1.0 5.0 0.00 0.00 0.00 1013.6
20260507102403 42 301 2.0 4.0 0.00 0.00 0.00 1014.3
20260507101903 42 319 1.0 6.0 0.00 0.00 0.00 1013.2
20260507101402 42 302 2.0 8.0 0.00 0.00 0.00 1014.3
20260507100903 42 295 2.0 8.0 0.00 0.00 0.00 1013.9
20260507100424 42 294 3.0 5.0 0.00 0.00 0.00 1014.3
20260507095903 42 309 1.0 4.0 0.00 0.00 0.00 1013.2
20260507095403 42 326 0.0 4.0 0.00 0.00 0.00 1013.2
20260507094903 42 323 1.0 6.0 0.00 0.00 0.00 1013.9
20260507094403 42 308 3.0 6.0 0.00 0.00 0.00 1013.2
20260507093904 42 319 2.0 8.0 0.00 0.00 0.00 1013.6
20260507093424 42 305 2.0 8.0 0.00 0.00 0.00 1013.9
20260507092903 42 307 3.0 8.0 0.00 0.00 0.00 1013.9
20260507092403 42 310 2.0 6.0 0.00 0.00 0.00 1013.2
20260507090924 43 293 1.0 5.0 0.00 0.00 0.00 1013.2
20260507090403 43 310 2.0 7.0 0.00 0.00 0.00 1013.9
20260507085903 43 316 3.0 7.0 0.00 0.00 0.00 1012.9
20260507085403 43 292 2.0 4.0 0.00 0.00 0.00 1013.2
20260507084903 43 302 2.0 5.0 0.00 0.00 0.00 1013.2
20260507084403 43 297 2.0 5.0 0.00 0.00 0.00 1013.6
20260507083903 43 308 2.0 5.0 0.00 0.00 0.00 1013.2
20260507083403 43 307 2.0 5.0 0.00 0.00 0.00 1013.2
20260507082903 43 288 1.0 4.0 0.00 0.00 0.00 1013.6
20260507082403 43 321 2.0 5.0 0.00 0.00 0.00 1013.6
20260507081902 43 295 1.0 8.0 0.00 0.00 0.00 1013.2
20260507081403 43 293 3.0 8.0 0.00 0.00 0.00 1012.9
20260507080924 43 297 1.0 5.0 0.00 0.00 0.00 1013.2
20260507080403 43 297 1.0 5.0 0.00 0.00 0.00 1012.9
20260507075903 43 296 2.0 6.0 0.00 0.00 0.00 1012.9
20260507075425 43 288 2.0 6.0 0.00 0.00 0.00 1013.6
20260507074903 43 287 2.0 6.0 0.00 0.00 0.00 1012.9
20260507074402 42 278 0.0 7.0 0.00 0.00 0.00 1013.6
20260507073903 42 272 1.0 7.0 0.00 0.00 0.00 1013.2
20260507073424 42 286 0.0 6.0 0.00 0.00 0.00 1013.6
20260507072903 42 266 0.0 6.0 0.00 0.00 0.00 1013.6
20260507072403 42 251 0.0 6.0 0.00 0.00 0.00 1013.6
20260507071903 42 262 0.0 7.0 0.00 0.00 0.00 1013.2
20260507071404 42 272 0.0 7.0 0.00 0.00 0.00 1013.2
20260507070903 42 227 0.0 6.0 0.00 0.00 0.00 1012.9
20260507070403 42 273 0.0 6.0 0.00 0.00 0.00 1013.6
20260507065903 42 265 0.0 6.0 0.00 0.00 0.00 1013.6
20260507065403 42 267 0.0 6.0 0.00 0.00 0.00 1013.2
20260507063903 42 270 0.0 6.0 0.00 0.00 0.00 1013.6
20260507063403 42 269 0.0 6.0 0.00 0.00 0.00 1013.6
20260507062924 43 292 0.0 7.0 0.00 0.00 0.00 1013.2
20260507062446 43 232 0.0 7.0 0.00 0.00 0.00 1013.9
20260507061903 43 224 1.0 7.0 0.00 0.00 0.00 1013.2
20260507061403 43 314 0.0 6.0 0.00 0.00 0.00 1013.6
20260507060903 43 248 0.0 6.0 0.00 0.00 0.00 1013.9
20260507060404 43 247 0.0 6.0 0.00 0.00 0.00 1013.9
20260507055903 43 248 0.0 6.0 0.00 0.00 0.00 1013.2
20260507055403 43 264 0.0 6.0 0.00 0.00 0.00 1013.2
20260507054903 43 249 0.0 5.0 0.00 0.00 0.00 1013.2
20260507054403 43 269 0.0 6.0 0.00 0.00 0.00 1013.9
20260507053902 43 269 0.0 6.0 0.00 0.00 0.00 1013.6
20260507053403 43 269 0.0 5.0 0.00 0.00 0.00 1013.2
20260507052924 43 269 0.0 5.0 0.00 0.00 0.00 1013.6
20260507052403 43 269 0.0 2.0 0.00 0.00 0.00 1013.6
20260507051903 43 269 0.0 6.0 0.00 0.00 0.00 1013.9
20260507051403 43 250 0.0 6.0 0.00 0.00 0.00 1013.2
20260507050924 43 269 0.0 6.0 0.00 0.00 0.00 1014.3
20260507050424 43 269 0.0 6.0 0.00 0.00 0.00 1014.6
20260507045403 43 269 0.0 6.0 0.00 0.00 0.00 1013.6
20260507044903 44 269 0.0 7.0 0.00 0.00 0.00 1014.3
20260507044403 44 269 1.0 7.0 0.00 0.00 0.00 1014.3
20260507043903 44 269 0.0 6.0 0.00 0.00 0.00 1014.3
20260507043403 44 202 0.0 6.0 0.00 0.00 0.00 1014.3
20260507042924 44 202 0.0 6.0 0.00 0.00 0.00 1013.6
20260507042403 44 202 0.0 6.0 0.00 0.00 0.00 1013.6
20260507041902 44 202 0.0 6.0 0.00 0.00 0.00 1013.9
20260507041403 44 203 0.0 6.0 0.00 0.00 0.00 1014.3
20260507040904 44 202 0.0 6.0 0.00 0.00 0.00 1013.6
20260507040403 45 202 0.0 3.0 0.00 0.00 0.00 1014.3
20260507035903 45 202 0.0 4.0 0.00 0.00 0.00 1013.9
20260507035403 45 202 0.0 8.0 0.00 0.00 0.00 1013.6
20260507034903 45 202 1.0 8.0 0.00 0.00 0.00 1013.2
20260507034404 45 203 0.0 6.0 0.00 0.00 0.00 1013.6
20260507033903 45 202 0.0 6.0 0.00 0.00 0.00 1013.6
20260507033424 45 202 0.0 1.0 0.00 0.00 0.00 1013.2
20260507032903 45 203 0.0 1.0 0.00 0.00 0.00 1013.6
20260507032404 45 203 0.0 3.0 0.00 0.00 0.00 1013.6
20260507031903 45 202 0.0 3.0 0.00 0.00 0.00 1013.9
20260507031403 46 203 0.0 6.0 0.00 0.00 0.00 1013.6
20260507030904 46 202 0.0 6.0 0.00 0.00 0.00 1013.6
20260507030403 46 203 0.0 7.0 0.00 0.00 0.00 1014.3
20260507025903 46 203 0.0 7.0 0.00 0.00 0.00 1013.6
20260507025445 46 202 0.0 3.0 0.00 0.00 0.00 1013.6
20260507024904 46 203 0.0 3.0 0.00 0.00 0.00 1013.9
20260507024403 46 202 0.0 7.0 0.00 0.00 0.00 1013.6
20260507023903 47 202 0.0 7.0 0.00 0.00 0.00 1013.9
20260507023403 47 340 0.0 6.0 0.00 0.00 0.00 1013.6